[[{"header":{"parameterUnit":"m.s-1","parameterCategory":1,"la1":30.2991,"la2":30.254,"lo1":-89.0895,"lo2":-89.0444,"dy":0.0017,"dx":0.0017,"nx":28,"ny":28,"refTime":"2023-10-16T03:00:00:Z","depth":0,"parameterNumber":2,"parameterNumberName":"U-component_of_WINDS"},"data":[0,0,0,0,0,0,0,0,0,0,0,0,0,0,0,0,0,0,0,0,0,0,0,0,0,0,0,0,0,0,0,0,0,0,0,0,0,0,0,0,0,0,0,0,0,0,0,0,0,0,0,0,0,0,0,0,0,0,2.2749,2.2749,0,2.2761,2.2761,2.2761,2.2745,2.2745,2.2744,2.2743,2.2756,2.2756,2.2757,0,0,0,0,0,0,0,0,0,0,0,0,0,2.2715,2.2716,2.2749,2.2749,2.2749,2.2761,2.2761,2.2761,2.2745,2.2745,2.2744,2.2743,2.2755,2.2756,2.2757,0,0,0,0,0,0,0,0,0,0,0,0,0,2.2729,2.2716,2.2749,2.2743,2.2743,2.2761,2.2761,2.2761,2.2745,2.2745,2.2744,2.2743,2.2755,2.2756,2.2757,2.2782,0,0,2.2761,2.2762,0,0,0,0,0,0,0,0,2.2728,2.273,2.2744,2.2743,2.2743,2.2751,2.2753,2.2768,2.2746,2.2744,2.2743,2.2742,2.2755,2.2756,2.276,2.2783,2.2783,2.2761,2.2762,2.2763,2.2763,0,0,0,0,0,0,0,2.2727,2.2729,2.2754,2.2744,2.2744,2.274,2.2741,2.2756,2.2754,2.2744,2.2743,2.2745,2.2754,2.2759,2.276,2.2783,2.2761,2.2762,2.2763,2.2764,2.2829,2.283,0,0,0,0,0,0,2.2727,2.2729,2.2753,2.2754,2.2733,2.2741,2.2742,2.2749,2.2754,2.2754,2.2745,2.2744,2.2757,2.2759,2.276,2.2791,2.2763,2.2764,2.2765,2.2828,2.2829,2.283,0,0,0,0,0,0,2.2726,2.2729,2.2753,2.2741,2.2744,2.2743,2.275,2.275,2.2754,2.2755,2.2754,2.275,2.2756,2.2759,2.2777,2.2791,2.2764,2.2766,2.2827,2.2828,2.283,2.2851,0,0,0,0,0,0,2.2725,2.2729,2.2738,2.2741,2.2745,2.2769,2.2751,2.2751,2.2756,2.2754,2.2759,2.2759,2.2756,2.2775,2.2778,2.2792,2.2767,2.2826,2.2828,2.2829,2.2849,2.2853,2.2856,0,0,0,0,0,2.2724,2.2743,2.2738,2.2741,2.2756,2.277,2.2772,2.2767,2.2757,2.2767,2.2767,2.2759,2.2789,2.2777,2.2781,2.2795,2.2825,2.2827,2.2829,2.2847,2.2852,2.2856,0,0,0,0,0,0,2.274,2.2743,2.2738,2.2759,2.2764,2.2767,2.2779,2.2772,2.2781,2.2779,2.2773,2.2775,2.2795,2.2797,2.2784,2.282,2.2805,2.2808,2.2818,2.2822,2.2826,2.2825,2.2768,0,0,0,0,0,2.2747,2.2758,2.2759,2.2778,2.2781,2.2779,2.2785,2.2782,2.2787,2.279,2.2791,2.2797,2.2808,2.2815,2.2825,2.2849,2.2851,2.2861,2.2864,2.2867,2.287,2.2884,2.2889,2.2837,2.2837,2.2837,0,0,2.2759,2.2762,2.2769,2.2781,2.2785,2.2797,2.2781,2.2794,2.2804,2.2791,2.2809,2.2811,2.2818,2.2839,2.2849,2.2842,2.2885,2.287,2.2872,2.2873,2.2887,2.2891,2.2896,2.2839,2.2839,2.2838,0,0,2.2788,2.2791,2.2807,2.2812,2.2818,2.2817,2.2821,2.2826,2.2826,2.2844,2.2836,2.2847,2.2866,2.2871,2.2876,2.2909,2.2902,2.2913,2.2932,2.2945,2.2949,2.2953,2.2966,2.297,2.2916,2.2916,2.2916,0,2.2803,2.2821,2.2816,2.283,2.2836,2.2827,2.2843,2.2848,2.2857,2.2862,2.2854,2.2878,2.2881,2.2905,2.2913,2.2917,2.2922,2.2912,2.2949,2.2953,2.2956,2.2968,2.2973,2.2917,2.2917,2.2917,2.2916,0,2.2839,2.2851,2.2864,2.2873,2.2881,2.2896,2.2895,2.2903,2.2899,2.29,2.2919,2.2923,2.2934,2.294,2.2936,2.2963,2.2959,2.295,2.2935,2.2962,2.2973,2.2978,2.2919,2.2918,2.2918,2.2918,0,0,2.2877,2.2886,2.289,2.2895,2.2902,2.2912,2.2928,2.2939,2.2946,2.2954,2.2967,2.2984,2.2976,2.2982,2.2979,2.2991,2.3019,2.2981,2.2982,2.2989,2.305,2.3056,2.3062,2.3014,2.3015,2.3016,2.305,0,2.2907,2.2933,2.2931,2.2956,2.2969,2.2961,2.2974,2.2981,2.2982,2.2993,2.2994,2.3007,2.2996,2.2999,2.3011,2.3013,2.3031,2.3011,2.3027,2.3028,2.3026,2.3067,2.3074,2.3105,2.3054,2.3055,2.3055,0,2.2944,2.2954,2.298,2.2987,2.2992,2.3004,2.3015,2.3026,2.3033,2.3034,2.3041,2.3037,2.3053,2.3039,2.3062,2.3048,2.3055,2.3057,2.3059,2.306,2.3043,2.307,2.3115,2.312,2.3062,2.3061,2.3061,0,2.297,2.299,2.3008,2.3013,2.3021,2.303,2.3034,2.304,2.3048,2.3058,2.3063,2.3074,2.3081,2.309,2.3089,2.3079,2.3114,2.3098,2.3115,2.3115,2.3122,2.3121,2.3169,2.3127,2.3126,2.3126,2.3126,0,2.3004,2.302,2.302,2.3032,2.3051,2.3049,2.3068,2.3071,2.3077,2.309,2.3084,2.3096,2.3094,2.3106,2.3106,2.3126,2.3129,2.313,2.313,2.313,2.313,2.3135,2.3132,2.3128,2.3127,2.3127,2.3127,0,2.3035,2.3036,2.3056,2.3063,2.3065,2.3079,2.3084,2.3096,2.3097,2.3114,2.3117,2.312,2.3134,2.3134,2.3151,2.3151,2.3175,2.3172,2.3173,2.3172,2.3189,2.3187,2.3241,2.3248,2.32,2.3201,2.3201,0,2.3056,2.3069,2.3078,2.3086,2.309,2.3103,2.3111,2.311,2.3118,2.3129,2.3139,2.3153,2.3164,2.3188,2.3191,2.3204,2.3202,2.322,2.3204,2.3205,2.3203,2.3202,2.3204,2.3223,2.3223,2.3224,2.3224,0,2.3094,2.3094,2.3105,2.3118,2.3127,2.3137,2.3145,2.3152,2.3152,2.3162,2.3177,2.3186,2.3203,2.3218,2.3231,2.3235,2.323,2.323,2.3234,2.3235,2.3235,2.3235,2.3181,2.3228,2.3228,2.3227,2.3227,2.3227,2.3121,2.3133,2.3141,2.3154,2.3161,2.317,2.3181,2.3184,2.3197,2.3211,2.3209,2.3226,2.3235,2.3252,2.3258,2.3272,2.3265,2.3272,2.3273,2.3275,2.3277,2.3233,2.3274,2.3274,2.3274,2.3274,2.3273,0,2.3159,2.3164,2.3176,2.3189,2.32,2.3195,2.3204,2.3214,2.3229,2.3237,2.3249,2.3267,2.3281,2.3286,2.33,2.331,2.3309,2.3314,2.3313,2.3315,2.3281,2.3276,2.3316,2.3316,2.3316,2.3316,2.3316,2.3316,2.3179,2.3199,2.32,2.3224,2.3229,2.3245,2.3252,2.326,2.3267,2.3287,2.3299,2.3303,2.331,2.3325,2.3339,2.334,2.3346,2.3352,2.3353,2.3321,2.3317,2.3313,2.3308,2.3353,2.3353,2.3385,2.3385,2.3385]},{"header":{"parameterUnit":"m.s-1","parameterCategory":1,"la1":30.2991,"la2":30.254,"lo1":-89.0895,"lo2":-89.0444,"dy":0.0017,"dx":0.0017,"nx":28,"ny":28,"refTime":"2023-10-16T03:00:00:Z","depth":0,"parameterNumber":3,"parameterNumberName":"V-component_of_WINDS"},"data":[0,0,0,0,0,0,0,0,0,0,0,0,0,0,0,0,0,0,0,0,0,0,0,0,0,0,0,0,0,0,0,0,0,0,0,0,0,0,0,0,0,0,0,0,0,0,0,0,0,0,0,0,0,0,0,0,0,0,-5.9994,-5.9995,0,-6.0084,-6.0085,-6.0085,-6.0076,-6.0074,-6.0073,-6.0072,-6.0158,-6.0161,-6.0165,0,0,0,0,0,0,0,0,0,0,0,0,0,-5.9812,-5.9815,-5.9994,-5.9995,-5.9996,-6.0083,-6.0085,-6.0086,-6.0076,-6.0074,-6.0073,-6.0071,-6.0157,-6.0161,-6.0165,0,0,0,0,0,0,0,0,0,0,0,0,0,-5.9895,-5.9816,-5.9994,-6.0002,-6.0004,-6.0083,-6.0085,-6.0086,-6.0076,-6.0074,-6.0072,-6.007,-6.0155,-6.0161,-6.0166,-6.0241,0,0,-6.0182,-6.0185,0,0,0,0,0,0,0,0,-5.989,-5.9901,-6.0,-6.0002,-6.0004,-6.0066,-6.0052,-6.0138,-6.0077,-6.0049,-6.0072,-6.0069,-6.0129,-6.0136,-6.0157,-6.0245,-6.0249,-6.0183,-6.0186,-6.0189,-6.019,0,0,0,0,0,0,0,-5.9884,-5.9898,-6.0029,-6.0001,-6.0004,-6.0,-6.001,-6.0068,-6.0099,-6.0051,-6.005,-6.0061,-6.0129,-6.0152,-6.0159,-6.025,-6.0183,-6.0188,-6.0191,-6.0193,-6.0406,-6.0409,0,0,0,0,0,0,-5.9877,-5.9893,-6.0026,-6.0032,-5.9941,-6.0005,-6.0016,-6.0048,-6.0099,-6.0104,-6.0063,-6.0061,-6.0144,-6.0153,-6.0162,-6.0255,-6.0188,-6.0194,-6.0197,-6.0404,-6.0407,-6.0409,0,0,0,0,0,0,-5.9873,-5.9889,-6.0023,-5.9962,-5.9979,-6.0011,-6.0047,-6.0051,-6.0074,-6.0108,-6.0113,-6.0081,-6.0143,-6.0155,-6.0223,-6.0258,-6.0196,-6.0201,-6.0401,-6.0405,-6.0408,-6.0441,0,0,0,0,0,0,-5.9868,-5.9888,-5.9917,-5.9963,-5.9983,-6.0083,-6.0049,-6.0054,-6.0084,-6.0082,-6.0126,-6.0131,-6.0142,-6.0215,-6.0228,-6.0264,-6.0205,-6.0398,-6.0403,-6.0407,-6.0436,-6.0445,-6.0452,0,0,0,0,0,-5.9862,-5.9921,-5.9919,-5.9935,-6.002,-6.0085,-6.0095,-6.0108,-6.0087,-6.0117,-6.0139,-6.013,-6.0252,-6.0222,-6.0237,-6.0275,-6.0396,-6.0401,-6.0407,-6.0433,-6.0443,-6.0452,0,0,0,0,0,0,-5.9876,-5.9927,-5.9925,-6.0002,-6.0039,-6.0083,-6.012,-6.0118,-6.0161,-6.0157,-6.0169,-6.0179,-6.0248,-6.0268,-6.0233,-6.0352,-6.0321,-6.033,-6.0336,-6.0346,-6.0354,-6.0347,-6.021,0,0,0,0,0,-5.9889,-5.9939,-5.998,-6.0043,-6.0063,-6.0089,-6.0117,-6.0124,-6.0162,-6.0177,-6.0204,-6.0241,-6.0287,-6.0318,-6.0362,-6.044,-6.0449,-6.0474,-6.0481,-6.0488,-6.0495,-6.0539,-6.055,-6.0427,-6.0427,-6.0427,0,0,-5.9915,-5.9949,-5.9979,-6.0047,-6.0077,-6.0127,-6.0102,-6.0155,-6.0192,-6.0185,-6.0251,-6.0273,-6.0314,-6.0387,-6.0421,-6.0406,-6.0531,-6.0495,-6.0499,-6.0503,-6.0545,-6.0557,-6.0567,-6.0431,-6.043,-6.043,0,0,-5.9987,-6.0018,-6.0075,-6.0107,-6.0153,-6.017,-6.0184,-6.0229,-6.0243,-6.0311,-6.0307,-6.0351,-6.0431,-6.0461,-6.0487,-6.0574,-6.0568,-6.0588,-6.0628,-6.0671,-6.0681,-6.0689,-6.0721,-6.0732,-6.0595,-6.0595,-6.0595,0,-6.0013,-6.009,-6.0104,-6.016,-6.019,-6.0189,-6.0247,-6.0275,-6.0333,-6.0354,-6.0337,-6.044,-6.0467,-6.0548,-6.057,-6.0591,-6.0607,-6.0583,-6.0678,-6.0687,-6.0695,-6.0726,-6.0738,-6.0597,-6.0597,-6.0597,-6.0597,0,-6.0119,-6.0172,-6.0213,-6.0272,-6.0307,-6.0363,-6.0386,-6.0419,-6.0424,-6.0443,-6.0512,-6.0545,-6.0598,-6.0618,-6.0621,-6.07,-6.069,-6.0676,-6.0645,-6.0709,-6.0738,-6.075,-6.0601,-6.06,-6.0599,-6.0599,0,0,-6.0201,-6.027,-6.0285,-6.0313,-6.0365,-6.0406,-6.0462,-6.0516,-6.0545,-6.0585,-6.0632,-6.0701,-6.069,-6.0719,-6.0726,-6.0764,-6.0832,-6.0745,-6.0747,-6.0761,-6.0922,-6.0932,-6.0945,-6.0829,-6.0831,-6.0833,-6.0918,0,-6.028,-6.0382,-6.0398,-6.0487,-6.0536,-6.0537,-6.0586,-6.0623,-6.0643,-6.0687,-6.0708,-6.0757,-6.0738,-6.0756,-6.0793,-6.0816,-6.0864,-6.081,-6.0872,-6.0874,-6.0862,-6.096,-6.0971,-6.105,-6.093,-6.0932,-6.0933,0,-6.0384,-6.0431,-6.0525,-6.0573,-6.0594,-6.0638,-6.069,-6.0733,-6.0775,-6.0786,-6.0821,-6.0825,-6.0882,-6.085,-6.093,-6.0893,-6.0919,-6.0935,-6.0938,-6.0944,-6.0907,-6.0969,-6.1075,-6.1087,-6.0951,-6.0949,-6.0948,0,-6.0436,-6.0522,-6.059,-6.0613,-6.067,-6.0702,-6.0727,-6.0767,-6.0799,-6.0843,-6.0864,-6.0914,-6.0941,-6.0979,-6.0996,-6.0971,-6.1076,-6.1044,-6.1087,-6.1086,-6.1108,-6.1106,-6.122,-6.1125,-6.1125,-6.1125,-6.1124,0,-6.0522,-6.0579,-6.0614,-6.0656,-6.0721,-6.074,-6.0803,-6.0827,-6.0863,-6.0909,-6.0912,-6.0955,-6.0975,-6.102,-6.1034,-6.1099,-6.111,-6.1121,-6.1124,-6.1121,-6.112,-6.1138,-6.1133,-6.1128,-6.1127,-6.1127,-6.1126,0,-6.059,-6.0616,-6.069,-6.074,-6.0753,-6.0799,-6.0841,-6.0881,-6.0902,-6.096,-6.0975,-6.1006,-6.106,-6.1081,-6.1147,-6.1156,-6.1231,-6.1229,-6.1217,-6.1218,-6.126,-6.1256,-6.1389,-6.1408,-6.13,-6.1301,-6.1302,0,-6.0643,-6.0688,-6.0743,-6.0775,-6.0802,-6.0854,-6.0887,-6.0907,-6.0941,-6.0994,-6.1028,-6.1083,-6.1128,-6.1215,-6.1243,-6.1293,-6.1293,-6.1336,-6.13,-6.1296,-6.1294,-6.1291,-6.1296,-6.1343,-6.1344,-6.1345,-6.1345,0,-6.0734,-6.0746,-6.0795,-6.0849,-6.089,-6.0933,-6.0975,-6.1,-6.1027,-6.1065,-6.1122,-6.1157,-6.1226,-6.128,-6.1333,-6.1357,-6.1356,-6.1357,-6.1369,-6.1367,-6.1359,-6.1364,-6.1236,-6.1353,-6.1353,-6.1352,-6.1352,-6.1351,-6.0797,-6.0838,-6.0884,-6.0939,-6.0973,-6.1013,-6.1054,-6.1081,-6.113,-6.1189,-6.1197,-6.1258,-6.1301,-6.1372,-6.1398,-6.1446,-6.1434,-6.1452,-6.1457,-6.1461,-6.1464,-6.1351,-6.1455,-6.1455,-6.1455,-6.1455,-6.1455,0,-6.0889,-6.092,-6.0971,-6.1031,-6.1074,-6.1072,-6.1118,-6.1154,-6.1209,-6.125,-6.1295,-6.1361,-6.1414,-6.1448,-6.1501,-6.1533,-6.1534,-6.1546,-6.1544,-6.155,-6.1471,-6.1455,-6.1545,-6.1545,-6.1545,-6.1545,-6.1545,-6.1545,-6.0942,-6.1012,-6.1029,-6.1116,-6.1146,-6.1208,-6.1235,-6.1271,-6.1304,-6.1379,-6.1424,-6.1446,-6.1484,-6.1541,-6.159,-6.1598,-6.1618,-6.1631,-6.1639,-6.1564,-6.1555,-6.1546,-6.1531,-6.1635,-6.1636,-6.1713,-6.1714,-6.1715]}]]